When you browse on this site, cookies collect data to enhance your experience and personalize the content and advertising you see.
Visit our Privacy Policy to learn more. By continuing to use the site, you agree to this use of cookies and data.

Météo par heure à Santa Fe

Ce jour, 12 Août, Mercredi

Heure Température Précipitation Vent Pression Humidité
00:00 +8°C° 0 mm 1 m/s 763 mmHg 36%
01:00 +7°C° 0 mm 1 m/s 762 mmHg 38%
02:00 +7°C° 0 mm 1 m/s 762 mmHg 40%
03:00 +7°C° 0 mm 1 m/s 762 mmHg 41%
04:00 +7°C° 0 mm 1 m/s 762 mmHg 42%
05:00 +7°C° 0 mm 1 m/s 761 mmHg 44%
06:00 +7°C° 0 mm 1 m/s 761 mmHg 45%
07:00 +8°C° 0 mm 1 m/s 762 mmHg 46%
08:00 +8°C° 0 mm 1 m/s 762 mmHg 46%
09:00 +10°C° 0 mm 1 m/s 762 mmHg 42%
10:00 +12°C° 0 mm 1 m/s 762 mmHg 37%
11:00 +14°C° 0 mm 2 m/s 762 mmHg 33%
12:00 +15°C° 0 mm 2 m/s 761 mmHg 31%
13:00 +16°C° 0 mm 2 m/s 760 mmHg 29%
14:00 +17°C° 0 mm 2 m/s 759 mmHg 28%
15:00 +16°C° 0 mm 1 m/s 759 mmHg 32%
16:00 +15°C° 0 mm 1 m/s 759 mmHg 36%
17:00 +14°C° 0 mm 1 m/s 758 mmHg 41%
18:00 +13°C° 0 mm 1 m/s 758 mmHg 44%
19:00 +11°C° 0 mm 1 m/s 758 mmHg 47%
20:00 +10°C° 0 mm 1 m/s 758 mmHg 50%
21:00 +9°C° 0 mm 1 m/s 759 mmHg 54%
22:00 +9°C° 0 mm 1 m/s 759 mmHg 58%
23:00 +8°C° 0 mm 1 m/s 759 mmHg 61%

Demain, 13 Août, Jeudi

Heure Température Précipitation Vent Pression Humidité
00:00 +8°C° 0 mm 1 m/s 759 mmHg 60%
01:00 +9°C° 0 mm 1 m/s 759 mmHg 59%
02:00 +8°C° 0 mm 0 m/s 759 mmHg 58%
03:00 +7°C° 0 mm 0 m/s 759 mmHg 61%
04:00 +6°C° 0 mm 0 m/s 758 mmHg 64%
05:00 +5°C° 0 mm 0 m/s 758 mmHg 68%
06:00 +6°C° 0 mm 0 m/s 758 mmHg 65%
07:00 +7°C° 0 mm 0 m/s 759 mmHg 62%
08:00 +8°C° 0 mm 0 m/s 759 mmHg 60%
09:00 +11°C° 0 mm 0 m/s 759 mmHg 53%
10:00 +13°C° 0 mm 0 m/s 759 mmHg 47%
11:00 +16°C° 0 mm 1 m/s 759 mmHg 40%
12:00 +18°C° 0 mm 1 m/s 758 mmHg 37%
13:00 +19°C° 0 mm 1 m/s 757 mmHg 34%
14:00 +19°C° 0 mm 2 m/s 757 mmHg 31%
15:00 +19°C° 0 mm 1 m/s 756 mmHg 36%
16:00 +18°C° 0 mm 1 m/s 756 mmHg 40%
17:00 +16°C° 0 mm 1 m/s 756 mmHg 44%
18:00 +15°C° 0 mm 1 m/s 756 mmHg 47%
19:00 +14°C° 0 mm 1 m/s 756 mmHg 49%
20:00 +12°C° 0 mm 1 m/s 756 mmHg 52%
21:00 +12°C° 0 mm 2 m/s 756 mmHg 56%
22:00 +10°C° 0 mm 2 m/s 756 mmHg 60%
23:00 +10°C° 0 mm 2 m/s 755 mmHg 63%

Après-demain, 14 Août, Vendredi

Heure Température Précipitation Vent Pression Humidité
00:00 +9°C° 0 mm 2 m/s 755 mmHg 67%
01:00 +9°C° 0 mm 2 m/s 755 mmHg 71%
02:00 +9°C° 0 mm 2 m/s 754 mmHg 74%
03:00 +8°C° 0 mm 2 m/s 754 mmHg 79%
04:00 +8°C° 0 mm 2 m/s 754 mmHg 84%
05:00 +8°C° 0 mm 2 m/s 754 mmHg 88%
06:00 +9°C° 0 mm 2 m/s 754 mmHg 87%
07:00 +10°C° 0 mm 2 m/s 754 mmHg 85%
08:00 +12°C° 0 mm 2 m/s 754 mmHg 84%
09:00 +14°C° 0 mm 2 m/s 755 mmHg 76%
10:00 +16°C° 0 mm 2 m/s 755 mmHg 68%
11:00 +19°C° 0 mm 2 m/s 755 mmHg 60%
12:00 +19°C° 0 mm 2 m/s 755 mmHg 58%
13:00 +20°C° 0 mm 3 m/s 755 mmHg 56%
14:00 +21°C° 0 mm 4 m/s 754 mmHg 54%
15:00 +20°C° 0 mm 4 m/s 755 mmHg 52%
16:00 +19°C° 0 mm 4 m/s 755 mmHg 50%
17:00 +17°C° 0 mm 5 m/s 755 mmHg 49%
18:00 +15°C° 0 mm 4 m/s 756 mmHg 48%
19:00 +14°C° 0 mm 4 m/s 757 mmHg 47%
20:00 +12°C° 0 mm 4 m/s 757 mmHg 46%
21:00 +11°C° 0 mm 4 m/s 758 mmHg 42%
22:00 +10°C° 0 mm 4 m/s 758 mmHg 37%
23:00 +8°C° 0 mm 4 m/s 759 mmHg 33%

15 Août, Samedi

Heure Température Précipitation Vent Pression Humidité
00:00 +8°C° 0 mm 3 m/s 759 mmHg 35%
01:00 +7°C° 0 mm 3 m/s 759 mmHg 37%
02:00 +6°C° 0 mm 2 m/s 759 mmHg 39%
03:00 +6°C° 0 mm 2 m/s 759 mmHg 40%
04:00 +5°C° 0 mm 2 m/s 759 mmHg 41%
05:00 +4°C° 0 mm 2 m/s 759 mmHg 41%
06:00 +5°C° 0 mm 2 m/s 759 mmHg 40%
07:00 +6°C° 0 mm 2 m/s 759 mmHg 39%
08:00 +8°C° 0 mm 1 m/s 759 mmHg 38%
09:00 +9°C° 0 mm 2 m/s 759 mmHg 34%
10:00 +13°C° 0 mm 2 m/s 759 mmHg 30%
11:00 +14°C° 0 mm 3 m/s 759 mmHg 26%
12:00 +16°C° 0 mm 3 m/s 759 mmHg 25%
13:00 +17°C° 0 mm 3 m/s 758 mmHg 24%
14:00 +18°C° 0 mm 3 m/s 758 mmHg 23%
15:00 +17°C° 0 mm 2 m/s 758 mmHg 27%
16:00 +16°C° 0 mm 2 m/s 758 mmHg 32%
17:00 +15°C° 0 mm 1 m/s 759 mmHg 36%
18:00 +13°C° 0 mm 1 m/s 759 mmHg 38%
19:00 +12°C° 0 mm 1 m/s 760 mmHg 41%
20:00 +10°C° 0 mm 1 m/s 760 mmHg 43%
21:00 +10°C° 0 mm 1 m/s 761 mmHg 45%
22:00 +9°C° 0 mm 1 m/s 762 mmHg 47%
23:00 +9°C° 0 mm 1 m/s 762 mmHg 49%

16 Août, Dimanche

Heure Température Précipitation Vent Pression Humidité
00:00 +8°C° 0 mm 1 m/s 762 mmHg 50%
01:00 +6°C° 0 mm 0 m/s 762 mmHg 52%
02:00 +6°C° 0 mm 0 m/s 762 mmHg 53%
03:00 +5°C° 0 mm 0 m/s 762 mmHg 54%
04:00 +5°C° 0 mm 0 m/s 761 mmHg 55%
05:00 +6°C° 0 mm 1 m/s 761 mmHg 56%
06:00 +7°C° 0 mm 1 m/s 761 mmHg 55%
07:00 +8°C° 0 mm 1 m/s 761 mmHg 53%
08:00 +9°C° 0 mm 1 m/s 762 mmHg 52%
09:00 +10°C° 0 mm 2 m/s 761 mmHg 46%
10:00 +13°C° 0 mm 2 m/s 761 mmHg 41%
11:00 +16°C° 0 mm 3 m/s 761 mmHg 35%
12:00 +17°C° 0 mm 3 m/s 760 mmHg 33%
13:00 +18°C° 0 mm 3 m/s 759 mmHg 31%
14:00 +19°C° 0 mm 3 m/s 758 mmHg 29%
15:00 +18°C° 0 mm 3 m/s 758 mmHg 33%
16:00 +17°C° 0 mm 2 m/s 758 mmHg 38%
17:00 +17°C° 0 mm 2 m/s 757 mmHg 42%
18:00 +15°C° 0 mm 2 m/s 758 mmHg 44%
19:00 +13°C° 0 mm 1 m/s 758 mmHg 46%
20:00 +12°C° 0 mm 1 m/s 759 mmHg 48%
21:00 +11°C° 0 mm 1 m/s 759 mmHg 49%
22:00 +11°C° 0 mm 1 m/s 759 mmHg 50%
23:00 +10°C° 0 mm 1 m/s 760 mmHg 51%

17 Août, Lundi

Heure Température Précipitation Vent Pression Humidité
00:00 +10°C° 0 mm 1 m/s 760 mmHg 52%
01:00 +10°C° 0 mm 1 m/s 760 mmHg 52%
02:00 +9°C° 0 mm 1 m/s 761 mmHg 52%
03:00 +8°C° 0 mm 2 m/s 761 mmHg 54%
04:00 +7°C° 0 mm 3 m/s 761 mmHg 55%
05:00 +6°C° 0 mm 4 m/s 762 mmHg 57%
06:00 +6°C° 0 mm 4 m/s 762 mmHg 55%
07:00 +7°C° 0 mm 4 m/s 763 mmHg 52%
08:00 +8°C° 0 mm 3 m/s 763 mmHg 49%
09:00 +10°C° 0 mm 3 m/s 763 mmHg 43%
10:00 +12°C° 0 mm 3 m/s 763 mmHg 36%
11:00 +14°C° 0 mm 3 m/s 763 mmHg 30%
12:00 +16°C° 0 mm 2 m/s 763 mmHg 29%
13:00 +16°C° 0 mm 2 m/s 762 mmHg 29%
14:00 +17°C° 0 mm 2 m/s 762 mmHg 29%
15:00 +17°C° 0 mm 2 m/s 761 mmHg 33%
16:00 +16°C° 0 mm 1 m/s 761 mmHg 37%
17:00 +15°C° 0 mm 1 m/s 761 mmHg 40%
18:00 +14°C° 0 mm 1 m/s 761 mmHg 43%
19:00 +12°C° 0 mm 2 m/s 762 mmHg 45%
20:00 +9°C° 0 mm 2 m/s 762 mmHg 48%
21:00 +9°C° 0 mm 2 m/s 762 mmHg 49%
22:00 +9°C° 0 mm 1 m/s 763 mmHg 50%
23:00 +8°C° 0 mm 1 m/s 763 mmHg 51%
Voir plus